Weather History for Lahr, Germany

Change the Weather History Date:

Friday, October 26, 2012

  Actual Average (LFST) Record (LFST)
Temperature  
Mean Temperature 48 °F -  
Max Temperature 52 °F 57 °F 75 °F (2006)
Min Temperature 43 °F 42 °F 28 °F (1997)
Degree Days  
Heating Degree Days 18    
Moisture  
Dew Point 46 °F    
Average Humidity 93    
Maximum Humidity 100    
Minimum Humidity 80    
Precipitation  
Precipitation 0.00 in - - ()
Sea Level Pressure  
Sea Level Pressure 29.72 in    
Wind  
Wind Speed 4 mph ()    
Max Wind Speed 9 mph    
Max Gust Speed -    
Visibility 3.2 miles    
Events Fog , Rain    
Averages and records for this station are not official NWS values.
T = Trace of Precipitation, MM = Missing Value Source: Averaged Metar Reports

Daily Weather History Graph

Daily Weather History Graph

Search for Another Location

Airport:

Trip Planner

Search our weather history database for the weather conditions in past years. The results will help you decide how hot, cold, wet, or windy it might be!

Date:

Astronomy

Oct. 26, 2012 Rise Set
Actual Time 8:05 AM CEST 6:18 PM CEST
Civil Twilight 7:33 AM CEST 6:51 PM CEST
Nautical Twilight 6:56 AM CEST 7:27 PM CEST
Astronomical Twilight 6:20 AM CEST 8:03 PM CEST
Moon 4:37 PM CEST (10/26) 4:32 AM CEST (10/26)
Length of Visible Light 11h 17m
Length of Day
10h 13m
Waxing Gibbous, 89% of the Moon is Illuminated
Oct 26
Waxing Gibbous
Oct 29
Full
Nov 7
Last Quarter
Nov 13
New
Nov 20
First Quarter

Hourly Weather History & Observations

Time (CEST) Temp. Windchill Dew Point Humidity Pressure Visibility Wind Dir Wind Speed Gust Speed Precip Events Conditions
12:00 AM 46 °F - 46 °F 97% 29.94 in 0 mi North 6.7 mph - - Fog Fog
1:00 AM 46 °F - 46 °F 99% 29.92 in 0 mi North 4.5 mph - - Fog Fog
2:00 AM 46 °F - 46 °F 97% 29.91 in 0 mi North 6.7 mph - - Fog Fog
3:00 AM 45 °F - 44 °F 97% 29.90 in 1 mi North 6.7 mph - - Fog Fog
5:00 AM 45 °F - 44 °F 97% 29.88 in 0 mi ENE 4.5 mph - - Fog Fog
6:00 AM 45 °F - 45 °F 98% 29.87 in 0 mi ENE 2.2 mph - - Fog Partial Fog
7:00 AM 45 °F - 44 °F 96% 29.86 in 1 mi North 4.5 mph - - Fog Partial Fog
7:50 AM 44.6 °F - 44.6 °F 100% 29.83 in 0.4 mi North 2.3 mph - N/A Fog Fog
8:00 AM 45 °F - 44 °F 97% 29.85 in 1 mi North 2.2 mph - - Fog Light Fog
8:20 AM 44.6 °F - 44.6 °F 100% 29.83 in 0.2 mi North 2.3 mph - N/A Fog Fog
8:50 AM 44.6 °F - 44.6 °F 100% 29.80 in 0.4 mi NNE 2.3 mph - N/A Fog Fog
9:00 AM 45 °F - 44 °F 97% 29.84 in 0 mi North 2.2 mph - - Fog Partial Fog
9:20 AM 44.6 °F - 44.6 °F 100% 29.80 in 1.2 mi Variable 2.3 mph - N/A Fog Fog
9:50 AM 46.4 °F 45.2 °F 46.4 °F 100% 29.80 in 1.6 mi North 3.5 mph - N/A   Mostly Cloudy
10:00 AM 46 °F - 46 °F 99% 29.83 in 2 mi NNE 4.5 mph - - Fog Light Fog
10:20 AM 46.4 °F - 46.4 °F 100% 29.80 in 1.6 mi North 2.3 mph - N/A   Mostly Cloudy
10:50 AM 46.4 °F 45.2 °F 46.4 °F 100% 29.77 in - North 3.5 mph - N/A   Mostly Cloudy
11:00 AM 47 °F - 46 °F 95% 29.81 in 2 mi North 4.5 mph - - Fog Light Fog
11:50 AM 48.2 °F - 48.2 °F 100% 29.74 in 2.5 mi North 4.6 mph - N/A   Mostly Cloudy
12:20 PM 48.2 °F - 48.2 °F 100% 29.74 in 3.1 mi North 3.5 mph - N/A   Mostly Cloudy
12:50 PM 50.0 °F - 50.0 °F 100% 29.71 in 3.1 mi North 3.5 mph - N/A   Mostly Cloudy
1:00 PM 49 °F - 47 °F 90% 29.74 in 4 mi North 4.5 mph - -   Mist
1:20 PM 50.0 °F - 50.0 °F 100% 29.71 in 3.7 mi NNW 3.5 mph - N/A   Mostly Cloudy
1:50 PM 50.0 °F - 50.0 °F 100% 29.68 in 3.7 mi NNW 2.3 mph - N/A   Mostly Cloudy
2:20 PM 51.8 °F - 48.2 °F 88% 29.68 in 3.7 mi North 3.5 mph - N/A   Mostly Cloudy
2:50 PM 51.8 °F - 48.2 °F 88% 29.65 in 3.7 mi North 8.1 mph - N/A   Mostly Cloudy
3:00 PM 52 °F - 48 °F 82% 29.66 in 6 mi NE 4.5 mph - -   Mostly Cloudy
3:20 PM 51.8 °F - 48.2 °F 88% 29.62 in 5.6 mi NNE 9.2 mph - N/A   Mostly Cloudy
4:00 PM 52 °F - 48 °F 80% 29.64 in 7 mi NNE 6.7 mph - -   Overcast
4:20 PM 51.8 °F - 46.4 °F 82% 29.59 in 4.3 mi NNE 9.2 mph - N/A   Overcast
4:50 PM 50.0 °F - 46.4 °F 87% 29.59 in 5.0 mi NNE 6.9 mph - N/A   Mostly Cloudy
5:20 PM 50.0 °F - 46.4 °F 87% 29.56 in 6.2 mi NNE 6.9 mph - N/A   Mostly Cloudy
5:50 PM 50.0 °F - 46.4 °F 87% 29.56 in 6.2 mi NNE 8.1 mph - N/A   Overcast
6:00 PM 50 °F - 46 °F 80% 29.58 in 7 mi NE 6.7 mph - -   Overcast
6:20 PM 50.0 °F - 46.4 °F 87% 29.53 in 6.2 mi NNE 5.8 mph - N/A   Mostly Cloudy
6:50 PM 48.2 °F - 46.4 °F 93% 29.53 in 6.2 mi NNE 6.9 mph - N/A   Mostly Cloudy
8:00 PM 48 °F - 45 °F 84% 29.55 in 11 mi NNE 6.7 mph - -   Overcast
9:00 PM 47 °F - 44 °F 86% 29.53 in 8 mi NNE 6.7 mph - - Rain Light Rain
10:00 PM 46 °F - 44 °F 89% 29.51 in 4 mi NNW 4.5 mph - - Rain Rain
11:00 PM 45 °F - 43 °F 92% 29.48 in 3 mi North 6.7 mph - - Rain Heavy Rain